Location: Vibo Valentia
(38.6670°N, 16.1000°E)
Time: 10:03:47
(UTC+02:00)

ISS - Visible Passes

Search period start: 08 May 2021 00:00
Search period end: 18 May 2021 00:00
Orbit: 418 x 421 km, 51.6° (Epoch: 08 May)

Date Brightness Start Highest point End Pass type
(mag) Time Alt. Az. Time Alt. Az. Time Alt. Az.
08 May -0.7 02:49:24 12° NNW 02:49:35 12° NNW 02:50:56 10° N visible
09 May -0.3 02:03:26 12° N 02:03:26 12° N 02:03:53 10° NNE visible
09 May -0.8 05:15:31 10° NNW 05:17:52 17° NNE 05:20:11 10° ENE visible
10 May -0.7 04:28:25 10° NNW 04:30:12 13° NNE 04:31:58 10° NE visible
11 May -0.3 02:04:21 10° N 02:04:24 10° N 02:04:47 10° N visible
11 May -0.4 03:41:25 10° N 03:42:30 11° NNE 03:43:34 10° NNE visible
11 May -1.8 05:16:59 10° NW 05:20:07 34° NNE 05:23:13 10° E visible
12 May -1.2 04:29:46 10° NNW 04:32:33 23° NNE 04:35:20 10° E visible
13 May -0.7 03:42:36 10° NNW 03:44:56 17° NNE 03:47:16 10° ENE visible
14 May -0.4 02:55:30 10° NNW 02:57:16 13° NNE 02:59:03 10° NE visible
14 May -3.0 04:31:21 10° NW 04:34:41 55° NE 04:37:59 10° ESE visible
14 May -3.3 21:13:44 10° SSW 21:16:52 37° SE 21:20:00 10° ENE visible
14 May -1.5 22:50:51 10° W 22:53:44 26° NNW 22:55:40 16° NNE visible
15 May -0.1 00:31:10 10° NNW 00:31:29 10° N 00:31:47 10° N visible
15 May -0.2 02:08:28 10° N 02:09:34 11° NNE 02:10:39 10° NNE visible
15 May -2.0 03:44:03 10° NW 03:47:10 34° NNE 03:50:17 10° E visible
15 May -2.3 22:03:01 10° WSW 22:06:11 38° NNW 22:09:22 10° NE visible
15 May -0.2 23:42:27 10° NW 23:43:44 12° NNW 23:45:02 10° N visible
16 May -1.3 02:56:49 10° NNW 02:59:37 23° NNE 03:02:23 10° E visible
16 May -3.5 04:33:19 10° WNW 04:36:33 45° SW 04:39:47 10° SSE visible
16 May -3.3 21:15:22 10° WSW 21:18:42 65° NW 21:22:03 10° NE visible
16 May -0.5 22:54:05 10° NW 22:56:02 14° NNW 22:57:59 10° NNE visible
17 May -0.8 02:09:39 10° NNW 02:11:59 17° NNE 02:14:20 10° ENE visible
17 May -3.9 03:45:47 10° NW 03:49:10 84° SW 03:52:32 10° SE visible
17 May -3.8 20:27:56 10° SW 20:31:16 71° SE 20:34:37 10° NE visible
17 May -0.8 22:05:55 10° WNW 22:08:23 19° NNW 22:10:51 10° NNE visible
